Hamilton, OH

3:14 AM EDT on August 26, 2016 (GMT -0400)
Butler County Regional

Weather History for KHAO - August, 2014

Change the Weather History Date:

Monday, August 11, 2014

  Actual Average (KCVG) Record (KCVG)
Temperature  
Mean Temperature 78 °F 75 °F  
Max Temperature 87 °F 85 °F 99 °F (1941)
Min Temperature 71 °F 66 °F 53 °F (1972)
Degree Days  
Heating Degree Days 0 0  
Month to date heating degree days 0  
Since 1 June heating degree days 15  
Since 1 July heating degree days 0  
Cooling Degree Days 14 10  
Month to date cooling degree days 119  
Year to date cooling degree days 778  
Since 1 June cooling degree days 684  
Growing Degree Days 28 (Base 50)    
Moisture  
Dew Point 71 °F    
Average Humidity 82    
Maximum Humidity 96    
Minimum Humidity 63    
Precipitation  
Precipitation 0.05 in 0.11 in 3.04 in (1957)
Month to date precipitation 1.25  
Year to date precipitation 27.63  
Snow  
Snow 0.00 in 0.00 in 0.00 in ()
Month to date snowfall 0.0  
Since 1 June snowfall 0.0  
Since 1 July snowfall 0.0  
Snow Depth -    
Sea Level Pressure  
Sea Level Pressure 29.86 in    
Wind  
Wind Speed 3 mph (WSW)    
Max Wind Speed 16 mph    
Max Gust Speed 21 mph    
Visibility 8 miles    
Events Rain , Thunderstorm    
T = Trace of Precipitation, MM = Missing Value Source: NWS Daily Summary

Daily Weather History Graph

Daily Weather History Graph

Search for Another Location

Airport or City:

Trip Planner

Search our weather history database for the weather conditions in past years. The results will help you decide how hot, cold, wet, or windy it might be!

Date:

Astronomy

Aug. 11, 2014 Rise Set
Actual Time 6:47 AM EDT 8:38 PM EDT
Civil Twilight 6:18 AM EDT 9:07 PM EDT
Nautical Twilight 5:42 AM EDT 9:42 PM EDT
Astronomical Twilight 5:04 AM EDT 10:20 PM EDT
Moon 9:07 PM EDT (8/11) 7:50 AM EDT (8/11)
Length of Visible Light 14h 49m
Length of Day
13h 51m
Full, 99% of the Moon is Illuminated
Aug 11
Full
Aug 17
Last Quarter
Aug 25
New
Sep 2
First Quarter
Sep 8
Full

Hourly Weather History & Observations

Time (EDT) Temp. Heat Index Dew Point Humidity Pressure Visibility Wind Dir Wind Speed Gust Speed Precip Events Conditions
12:53 AM 73.9 °F - 72.0 °F 93% 29.94 in 10.0 mi Calm Calm - N/A   Overcast
1:18 AM 73.9 °F - 72.0 °F 93% 29.96 in 10.0 mi Variable 3.5 mph - N/A   Overcast
1:53 AM 73.9 °F - 72.0 °F 93% 29.94 in 10.0 mi Calm Calm - N/A   Overcast
2:41 AM 73.9 °F - 72.0 °F 93% 29.94 in 10.0 mi Variable 3.5 mph - N/A   Overcast
2:53 AM 73.9 °F - 72.0 °F 93% 29.92 in 10.0 mi Calm Calm - N/A   Overcast
3:11 AM 73.9 °F - 72.0 °F 93% 29.93 in 10.0 mi Calm Calm - N/A   Overcast
3:32 AM 73.0 °F - 71.1 °F 93% 29.92 in 8.0 mi Calm Calm - N/A   Mostly Cloudy
3:51 AM 73.4 °F - 71.6 °F 94% 29.92 in 8.0 mi Calm Calm - N/A   Mostly Cloudy
3:53 AM 73.0 °F - 72.0 °F 96% 29.90 in 8.0 mi Calm Calm - N/A   Mostly Cloudy
4:53 AM 73.9 °F - 72.0 °F 93% 29.90 in 9.0 mi Calm Calm - N/A   Overcast
5:06 AM 73.9 °F - 72.0 °F 93% 29.91 in 9.0 mi Calm Calm - N/A   Overcast
5:24 AM 73.9 °F - 72.0 °F 93% 29.91 in 9.0 mi Calm Calm - N/A   Overcast
5:53 AM 73.9 °F - 72.0 °F 93% 29.90 in 9.0 mi Calm Calm - N/A   Overcast
6:53 AM 73.0 °F - 71.1 °F 93% 29.89 in 7.0 mi South 4.6 mph - N/A   Overcast
7:53 AM 73.9 °F - 71.1 °F 91% 29.89 in 4.0 mi SSW 4.6 mph - N/A   Overcast
8:51 AM 75.2 °F - 71.6 °F 89% 29.91 in 5.0 mi Variable 3.5 mph - N/A   Overcast
8:53 AM 75.0 °F - 71.1 °F 87% 29.89 in 5.0 mi SW 4.6 mph - N/A   Overcast
9:53 AM 75.0 °F - 71.1 °F 87% 29.89 in 5.0 mi Variable 4.6 mph - N/A   Overcast
10:33 AM 78.1 °F - 72.0 °F 81% 29.89 in 5.0 mi SSW 6.9 mph - N/A   Haze
10:53 AM 77.0 °F - 71.1 °F 82% 29.88 in 5.0 mi Variable 5.8 mph - N/A   Haze
11:03 AM 77.0 °F - 71.1 °F 82% 29.89 in 5.0 mi SW 4.6 mph - N/A   Haze
11:42 AM 80.1 °F 83.6 °F 71.1 °F 74% 29.89 in 6.0 mi Variable 6.9 mph - N/A   Haze
11:53 AM 79.0 °F - 71.1 °F 77% 29.88 in 6.0 mi WSW 6.9 mph - N/A   Haze
12:02 PM 82.0 °F 86.7 °F 72.0 °F 71% 29.89 in 6.0 mi Variable 6.9 mph - N/A   Haze
12:53 PM 80.1 °F 83.2 °F 70.0 °F 71% 29.87 in 9.0 mi SSW 8.1 mph - N/A   Mostly Cloudy
1:21 PM 82.0 °F 86.3 °F 71.1 °F 69% 29.87 in 9.0 mi Variable 3.5 mph - 0.00 in   Mostly Cloudy
1:39 PM 82.0 °F 85.9 °F 70.0 °F 67% 29.86 in 10.0 mi Variable 3.5 mph - 0.00 in   Mostly Cloudy
1:53 PM 82.9 °F 87.5 °F 71.1 °F 67% 29.84 in 10.0 mi Variable 6.9 mph - 0.00 in   Mostly Cloudy
2:01 PM 84.9 °F 90.7 °F 72.0 °F 65% 29.85 in 10.0 mi Variable 4.6 mph - N/A   Mostly Cloudy
2:53 PM 84.0 °F 88.4 °F 70.0 °F 63% 29.81 in 10.0 mi West 6.9 mph - N/A   Mostly Cloudy
3:25 PM 79.0 °F - 72.0 °F 79% 29.83 in 1.8 mi Variable 6.9 mph - 0.05 in Rain Heavy Rain
3:32 PM 82.0 °F 89.4 °F 75.9 °F 82% 29.82 in 2.5 mi SW 4.6 mph - 0.05 in Rain Light Rain
3:39 PM 82.0 °F 87.9 °F 73.9 °F 76% 29.82 in 9.0 mi SSW 8.1 mph 17.3 mph 0.05 in   Mostly Cloudy
3:53 PM 81.0 °F 85.2 °F 72.0 °F 74% 29.81 in 7.0 mi SW 8.1 mph - 0.05 in   Scattered Clouds
4:53 PM 82.9 °F 88.0 °F 72.0 °F 69% 29.79 in 9.0 mi Variable 5.8 mph - 0.00 in   Partly Cloudy
5:28 PM 82.9 °F 87.0 °F 70.0 °F 65% 29.80 in 10.0 mi NW 15.0 mph - N/A Thunderstorm Thunderstorm
5:43 PM 82.9 °F 86.5 °F 69.1 °F 63% 29.80 in 10.0 mi NW 10.4 mph - N/A   Clear
5:53 PM 82.9 °F 86.5 °F 69.1 °F 63% 29.78 in 10.0 mi NW 16.1 mph 20.7 mph N/A Thunderstorm Clear
6:28 PM 81.0 °F 83.8 °F 68.0 °F 65% 29.81 in 10.0 mi WNW 13.8 mph - N/A   Overcast
6:51 PM 78.8 °F - 68.0 °F 69% 29.80 in 10.0 mi Variable 4.6 mph - N/A Thunderstorm Scattered Clouds
6:53 PM 80.1 °F 82.7 °F 68.0 °F 67% 29.78 in 10.0 mi Variable 4.6 mph - N/A Thunderstorm Scattered Clouds
7:16 PM 79.0 °F - 69.1 °F 72% 29.80 in 10.0 mi Calm Calm - N/A   Partly Cloudy
7:53 PM 77.0 °F - 70.0 °F 79% 29.80 in 10.0 mi Calm Calm - N/A   Mostly Cloudy
8:05 PM 75.9 °F - 71.1 °F 85% 29.81 in 9.0 mi East 3.5 mph - N/A   Mostly Cloudy
8:13 PM 75.9 °F - 71.1 °F 85% 29.81 in 9.0 mi ENE 4.6 mph - N/A   Mostly Cloudy
8:53 PM 75.0 °F - 71.1 °F 87% 29.80 in 8.0 mi East 3.5 mph - N/A   Mostly Cloudy
9:05 PM 75.0 °F - 71.1 °F 87% 29.82 in 9.0 mi Calm Calm - N/A   Mostly Cloudy
9:39 PM 73.0 °F - 71.1 °F 93% 29.82 in 8.0 mi Calm Calm - N/A   Scattered Clouds
9:53 PM 73.9 °F - 71.1 °F 91% 29.81 in 9.0 mi WSW 3.5 mph - N/A   Scattered Clouds
10:25 PM 75.0 °F - 71.1 °F 87% 29.83 in 9.0 mi West 3.5 mph - N/A   Scattered Clouds
10:53 PM 73.0 °F - 70.0 °F 90% 29.81 in 9.0 mi West 3.5 mph - N/A   Clear
11:53 PM 71.1 °F - 69.1 °F 93% 29.82 in 9.0 mi Calm Calm - N/A   Clear